User: anonymous   Login
Location: Unspecified
(0.0000°N, 0.0000°E)
Time: 22:45:34
(UTC+02:00)
Language:

ISS - Orbit

View from above orbital plane
View from above orbital plane
View from above satellite
View from above satellite

Ground track
Ground track

The orbit data is extracted from the following two-line orbital elements,

1 25544U 98067A   16212.52633186  .00016717  00000-0  10270-3 0  9014
2 25544  51.6378 201.7947 0002043  84.3398 275.7988 15.54883111 11720
Epoch (UTC): 30 July 2016 12:37:55
Eccentricity: 0.0002043
inclination: 51.6378°
perigee height: 401 km
apogee height: 404 km
right ascension of ascending node: 201.7947°
argument of perigee: 84.3398°
revolutions per day: 15.54883111
mean anomaly at epoch: 275.7988°
orbit number at epoch: 1172

The dashed part of the orbit path shows where the satellite is in the earth's shadow,  

DLR